Location: Mount Kobau Star Party
(49.1167°N, 119.7333°W)
Time: 10:44:35
(UTC-07:00)

BlueWalker 3 - Pass Details

Date: 03 March 2024
Orbit: 485 x 496 km, 53.2° (Epoch: 11 April)

Event Time Altitude Azimuth Distance (km) Brightness Sun altitude
Rises 20:20:30 0° 286° (WNW) 2,552 6.9 -25.6°
Reaches altitude 10° 20:23:33 10° 259° (W) 1,665 5.3 -26.0°
Maximum altitude 20:25:27 14° 228° (SW) 1,452 4.5 -26.3°
Enters shadow 20:25:42 14° 224° (SW) 1,456 4.5 -26.4°
